{"data":{"norad_id":65546,"intl_designator":"2025-199C","name":"YAOGAN-40 03C","alt_names":[],"object_type":"PAYLOAD","status":"ACTIVE","operator":null,"country":"PRC","launch_date":"2025-09-06","launch_site_code":"TAISC","launch_vehicle":null,"mission":null,"orbit_class":"UNKNOWN","rcs_meters":null,"size_class":null,"mass_kg":null,"dimensions":null,"purposes":[],"wikipedia_slug":null,"has_3d_model":false,"image_url":null,"decayed_at":null,"tle_current":{"epoch":"2026-05-25T05:29:21.402816Z","epoch_age_seconds":51340,"freshness":"FRESH","line1":"1 65546U 25199C   26145.22871994  .00000157  00000+0  74826-4 0  9995","line2":"2 65546  85.9923  54.3922 0001979  93.4211 266.7198 14.12445287 36821","mean_motion":14.12445287,"eccentricity":0.0001979,"inclination_deg":85.9923,"raan_deg":54.3922,"arg_perigee_deg":93.4211,"mean_anomaly_deg":266.7198,"bstar":7.4826e-5,"rev_number":3682,"period_min":101.95085170757,"perigee_km":849.58539034213,"apogee_km":852.44668911525,"semimajor_km":7229.1530397287,"source":"CELESTRAK","updated_at":"2026-05-25T13:38:05.512090Z"}}}